This is the latest recevied weather packets stored in our database for station/object KQ4NAL. If no packets are shown the sender has not sent any weather packets the latest 10 day(s).
| Time | Temp. | Humidity | Pressure | Rain* | Wind** | Luminosity | Snow |
|---|---|---|---|---|---|---|---|
| 1777868851 | 11.67° C | 64% | 1014.1 hPa | 0 mm | - | 0 W/m² | - |
| 1777868547 | 11.67° C | 65% | 1014.3 hPa | 0 mm | - | 0 W/m² | - |
| 1777868244 | 11.11° C | 65% | 1014.5 hPa | 0 mm | - | 0 W/m² | - |
| 1777867940 | 10.56° C | 67% | 1014.4 hPa | 0 mm | - | 0 W/m² | - |
| 1777867636 | 11.11° C | 66% | 1014.4 hPa | 0 mm | - | 0 W/m² | - |
| 1777867334 | 11.67° C | 67% | 1014.5 hPa | 0 mm | - | 0 W/m² | - |
| 1777867030 | 11.67° C | 66% | 1014.5 hPa | 0 mm | - | 0 W/m² | - |
| 1777866727 | 11.11° C | 66% | 1014.6 hPa | 0 mm | - | 0 W/m² | - |
| 1777866424 | 11.11° C | 66% | 1014.8 hPa | 0 mm | - | 0 W/m² | - |
| 1777866121 | 11.67° C | 65% | 1014.7 hPa | 0 mm | - | 0 W/m² | - |
| 1777865819 | 11.67° C | 64% | 1014.7 hPa | 0 mm | - | 0 W/m² | - |
| 1777865516 | 11.67° C | 63% | 1014.8 hPa | 0 mm | - | 0 W/m² | - |
| 1777865213 | 11.67° C | 67% | 1014.7 hPa | 0 mm | - | 0 W/m² | - |
| 1777864910 | 11.11° C | 67% | 1014.7 hPa | 0 mm | - | 0 W/m² | - |
| 1777864607 | 11.11° C | 67% | 1014.7 hPa | 0 mm | - | 0 W/m² | - |
| 1777864303 | 11.11° C | 69% | 1014.5 hPa | 0 mm | - | 0 W/m² | - |
| 1777864000 | 11.11° C | 73% | 1014.6 hPa | 0 mm | - | 0 W/m² | - |
| 1777863697 | 11.11° C | 74% | 1014.8 hPa | 0 mm | - | 0 W/m² | - |
| 1777863394 | 10.56° C | 76% | 1014.8 hPa | 0 mm | - | 0 W/m² | - |
| 1777863090 | 10.56° C | 78% | 1014.8 hPa | 0 mm | - | 0 W/m² | - |
| 1777862788 | 11.11° C | 78% | 1015 hPa | 0 mm | - | 0 W/m² | - |
| 1777862484 | 11.11° C | 74% | 1014.8 hPa | 0 mm | - | 0 W/m² | - |
| 1777862181 | 11.67° C | 73% | 1015 hPa | 0 mm | - | 0 W/m² | - |
| 1777861877 | 11.67° C | 69% | 1014.9 hPa | 0 mm | - | 0 W/m² | - |
| 1777861574 | 11.67° C | 68% | 1014.8 hPa | 0 mm | - | 0 W/m² | - |
* Rain latest hour (hover to see other rain measurements)
** Current wind speed in m/s (hover to see current wind gust speed)